Location: Doverdale
(52.2833°N, 2.2000°W)
Time: 03:05:35
(UTC+00:00)

Cosmos 1980 Rocket - Pass Details

Date: 10 March 2021
Orbit: 828 x 851 km, 71.0° (Epoch: 15 April)

Event Time Altitude Azimuth Distance (km) Brightness Sun altitude
Rises 18:49:09 0° 267° (W) 3,409 7.8 -7.6°
Reaches altitude 10° 18:52:19 10° 285° (WNW) 2,480 6.2 -8.1°
Maximum altitude 18:56:21 19° 330° (NNW) 1,909 4.5 -8.7°
Drops below altitude 10° 19:00:24 10° 16° (NNE) 2,491 4.6 -9.3°
Sets 19:03:37 0° 33° (NNE) 3,430 5.1 -9.8°
